Time,TemperatureF,DewpointF,PressureIn,WindDirection,WindDirectionDegrees,WindSpeedMPH,WindSpeedGustMPH,Humidity,HourlyPrecipIn,Conditions,Clouds,dailyrainin,SoftwareType,DateUTC
2013-01-28 00:01:00,34.0,28.4,30.06,SE,135,0.0,0.0,73,0.00,,,0.00,fowsr,2013-01-28 05:01:00,
2013-01-28 00:02:00,34.0,28.4,30.01,SE,135,0.0,0.0,73,0.00,,,0.00,fowsr,2013-01-28 05:02:00,
2013-01-28 00:04:00,34.0,28.4,-100.00,SE,135,0.0,0.0,73,0.00,,,0.00,fowsr,2013-01-28 05:04:00,
2013-01-28 00:09:00,34.0,28.4,-100.00,SE,135,0.0,0.0,73,0.00,,,0.00,fowsr,2013-01-28 05:09:00,
2013-01-28 00:10:00,34.0,28.4,30.06,SE,135,0.0,0.0,73,0.00,,,0.00,fowsr,2013-01-28 05:10:00,
2013-01-28 00:14:00,34.0,28.2,-100.00,SE,135,0.0,0.7,72,0.00,,,0.00,fowsr,2013-01-28 05:14:00,
2013-01-28 00:15:00,34.0,28.4,30.06,SE,135,0.0,0.0,73,0.00,,,0.00,fowsr,2013-01-28 05:15:00,
2013-01-28 00:19:00,34.0,28.2,-100.00,SE,135,0.0,0.0,72,0.00,,,0.00,fowsr,2013-01-28 05:19:00,
2013-01-28 00:20:00,34.0,28.2,30.05,SE,135,0.0,0.0,72,0.00,,,0.00,fowsr,2013-01-28 05:20:00,
2013-01-28 00:24:00,33.8,28.0,-100.00,SE,135,0.0,0.0,72,0.00,,,0.00,fowsr,2013-01-28 05:24:00,
2013-01-28 00:25:00,34.0,28.2,30.06,SE,135,0.0,0.0,72,0.00,,,0.00,fowsr,2013-01-28 05:25:00,
2013-01-28 00:29:00,33.8,28.0,-100.00,SE,135,0.0,0.0,72,0.00,,,0.00,fowsr,2013-01-28 05:29:00,
2013-01-28 00:30:00,33.8,28.0,30.06,SE,135,0.0,0.0,72,0.00,,,0.00,fowsr,2013-01-28 05:30:00,
2013-01-28 00:34:00,33.6,28.1,-100.00,SE,135,0.0,0.0,73,0.00,,,0.00,fowsr,2013-01-28 05:34:00,
2013-01-28 00:35:00,33.6,28.1,30.07,SE,135,0.0,0.0,73,0.00,,,0.00,fowsr,2013-01-28 05:35:00,
2013-01-28 00:39:00,33.4,27.9,-100.00,SE,135,0.0,0.0,73,0.00,,,0.00,fowsr,2013-01-28 05:39:00,
2013-01-28 00:40:00,33.6,28.1,30.06,SE,135,0.0,0.0,73,0.00,,,0.00,fowsr,2013-01-28 05:40:00,
2013-01-28 00:44:00,33.4,27.9,-100.00,SE,135,0.0,0.0,73,0.00,,,0.00,fowsr,2013-01-28 05:44:00,
2013-01-28 00:45:00,33.4,27.9,30.05,SE,135,0.0,0.0,73,0.00,,,0.00,fowsr,2013-01-28 05:45:00,
2013-01-28 00:49:00,33.4,27.9,-100.00,SE,135,0.0,0.0,73,0.00,,,0.00,fowsr,2013-01-28 05:49:00,
2013-01-28 00:50:00,33.4,27.9,30.05,SE,135,0.0,0.0,73,0.00,,,0.00,fowsr,2013-01-28 05:50:00,
2013-01-28 00:54:00,33.6,28.1,-100.00,SE,135,0.0,0.7,73,0.00,,,0.00,fowsr,2013-01-28 05:54:00,
2013-01-28 00:55:00,33.4,27.9,30.06,SE,135,0.0,0.7,73,0.00,,,0.00,fowsr,2013-01-28 05:55:00,
2013-01-28 00:59:00,33.6,28.1,-100.00,SE,135,0.0,0.0,73,0.00,,,0.00,fowsr,2013-01-28 05:59:00,
2013-01-28 01:00:00,33.6,28.1,30.05,SE,135,0.0,0.0,73,0.00,,,0.00,fowsr,2013-01-28 06:00:00,
2013-01-28 01:04:00,33.6,28.1,-100.00,SE,135,0.0,0.0,73,0.00,,,0.00,fowsr,2013-01-28 06:04:00,
2013-01-28 01:05:00,33.6,28.1,30.05,SE,135,0.0,0.0,73,0.00,,,0.00,fowsr,2013-01-28 06:05:00,
2013-01-28 01:09:00,33.8,28.0,-100.00,SE,135,0.0,1.6,72,0.00,,,0.00,fowsr,2013-01-28 06:09:00,
2013-01-28 01:10:00,33.6,28.1,30.05,SE,135,0.0,0.7,73,0.00,,,0.00,fowsr,2013-01-28 06:10:00,
2013-01-28 01:14:00,33.8,28.0,-100.00,SE,135,0.0,1.6,72,0.00,,,0.00,fowsr,2013-01-28 06:14:00,
2013-01-28 01:15:00,33.8,28.0,30.05,SE,135,0.0,0.7,72,0.00,,,0.00,fowsr,2013-01-28 06:15:00,
2013-01-28 01:19:00,34.0,28.2,-100.00,SE,135,0.7,2.2,72,0.00,,,0.00,fowsr,2013-01-28 06:19:00,
2013-01-28 01:20:00,33.8,28.0,30.05,SE,135,0.0,1.6,72,0.00,,,0.00,fowsr,2013-01-28 06:20:00,
2013-01-28 01:24:00,34.0,28.2,-100.00,SE,135,0.0,0.0,72,0.00,,,0.00,fowsr,2013-01-28 06:24:00,
2013-01-28 01:25:00,34.0,28.2,30.05,SE,135,0.7,2.2,72,0.00,,,0.00,fowsr,2013-01-28 06:25:00,
2013-01-28 01:29:00,34.0,28.2,-100.00,SE,135,0.0,0.7,72,0.00,,,0.00,fowsr,2013-01-28 06:29:00,
2013-01-28 01:30:00,34.0,28.2,30.05,SE,135,0.0,0.7,72,0.00,,,0.00,fowsr,2013-01-28 06:30:00,
2013-01-28 01:34:00,34.0,28.2,-100.00,SE,135,0.0,0.7,72,0.00,,,0.00,fowsr,2013-01-28 06:34:00,
2013-01-28 01:35:00,34.0,28.2,30.04,SE,135,0.0,0.0,72,0.00,,,0.00,fowsr,2013-01-28 06:35:00,
2013-01-28 01:39:00,34.0,28.2,-100.00,SE,135,0.0,0.7,72,0.00,,,0.00,fowsr,2013-01-28 06:39:00,
2013-01-28 01:40:00,34.0,28.2,30.04,SE,135,0.0,0.7,72,0.00,,,0.00,fowsr,2013-01-28 06:40:00,
2013-01-28 01:44:00,34.0,28.2,-100.00,SE,135,0.0,0.7,72,0.00,,,0.00,fowsr,2013-01-28 06:44:00,
2013-01-28 01:45:00,34.0,28.0,30.03,SE,135,0.0,0.7,71,0.00,,,0.00,fowsr,2013-01-28 06:45:00,
2013-01-28 01:49:00,34.0,28.0,-100.00,SE,135,0.0,0.7,71,0.00,,,0.00,fowsr,2013-01-28 06:49:00,
2013-01-28 01:50:00,34.0,28.2,30.03,SE,135,0.0,0.7,72,0.00,,,0.00,fowsr,2013-01-28 06:50:00,
2013-01-28 01:54:00,34.2,28.1,-100.00,SE,135,0.0,1.6,71,0.00,,,0.00,fowsr,2013-01-28 06:54:00,
2013-01-28 01:55:00,34.0,28.0,30.03,SE,135,0.0,1.6,71,0.00,,,0.00,fowsr,2013-01-28 06:55:00,
2013-01-28 01:59:00,34.0,28.0,-100.00,SE,135,0.0,0.7,71,0.00,,,0.00,fowsr,2013-01-28 06:59:00,
2013-01-28 02:00:00,34.0,28.0,30.03,East,90,0.7,1.6,71,0.00,,,0.00,fowsr,2013-01-28 07:00:00,
2013-01-28 02:04:00,34.2,28.1,-100.00,SE,135,0.0,0.7,71,0.00,,,0.00,fowsr,2013-01-28 07:04:00,
2013-01-28 02:05:00,34.0,28.0,30.02,SE,135,0.7,1.6,71,0.00,,,0.00,fowsr,2013-01-28 07:05:00,
2013-01-28 02:09:00,34.2,28.1,-100.00,SE,135,0.0,0.7,71,0.00,,,0.00,fowsr,2013-01-28 07:09:00,
2013-01-28 02:10:00,34.2,28.1,30.03,SE,135,0.0,0.0,71,0.00,,,0.00,fowsr,2013-01-28 07:10:00,
2013-01-28 02:14:00,34.2,28.1,-100.00,SE,135,0.0,1.6,71,0.00,,,0.00,fowsr,2013-01-28 07:14:00,
2013-01-28 02:15:00,34.2,28.1,30.02,South,180,0.0,1.6,71,0.00,,,0.00,fowsr,2013-01-28 07:15:00,
2013-01-28 02:19:00,34.2,28.1,-100.00,South,180,0.0,0.0,71,0.00,,,0.00,fowsr,2013-01-28 07:19:00,
2013-01-28 02:20:00,34.2,28.1,30.03,East,90,0.0,0.7,71,0.00,,,0.00,fowsr,2013-01-28 07:20:00,
2013-01-28 02:24:00,34.2,28.1,-100.00,East,90,0.0,0.0,71,0.00,,,0.00,fowsr,2013-01-28 07:24:00,
2013-01-28 02:25:00,34.2,28.1,30.03,South,180,0.0,0.0,71,0.00,,,0.00,fowsr,2013-01-28 07:25:00,
2013-01-28 02:29:00,34.2,28.1,-100.00,SE,135,0.0,0.7,71,0.00,,,0.00,fowsr,2013-01-28 07:29:00,
2013-01-28 02:30:00,34.2,28.1,30.03,SE,135,0.0,0.7,71,0.00,,,0.00,fowsr,2013-01-28 07:30:00,
2013-01-28 02:34:00,34.2,28.1,-100.00,SE,135,0.0,0.7,71,0.00,,,0.00,fowsr,2013-01-28 07:34:00,
2013-01-28 02:35:00,34.2,28.1,30.03,SE,135,0.0,0.0,71,0.00,,,0.00,fowsr,2013-01-28 07:35:00,
2013-01-28 02:39:00,34.3,28.3,-100.00,SE,135,0.0,0.0,71,0.00,,,0.00,fowsr,2013-01-28 07:39:00,
2013-01-28 02:40:00,34.2,28.1,30.03,SE,135,0.0,0.7,71,0.00,,,0.00,fowsr,2013-01-28 07:40:00,
2013-01-28 02:44:00,34.3,28.3,-100.00,SE,135,0.0,0.0,71,0.00,,,0.00,fowsr,2013-01-28 07:44:00,
2013-01-28 02:45:00,34.3,28.3,30.04,SE,135,0.0,0.0,71,0.00,,,0.00,fowsr,2013-01-28 07:45:00,
2013-01-28 02:49:00,34.3,28.3,-100.00,SE,135,0.0,0.0,71,0.00,,,0.00,fowsr,2013-01-28 07:49:00,
2013-01-28 02:50:00,34.3,28.3,30.04,SE,135,0.0,0.0,71,0.00,,,0.00,fowsr,2013-01-28 07:50:00,
2013-01-28 02:54:00,34.3,28.3,-100.00,SE,135,0.0,0.0,71,0.00,,,0.00,fowsr,2013-01-28 07:54:00,
2013-01-28 02:55:00,34.3,28.3,30.03,SE,135,0.0,0.0,71,0.00,,,0.00,fowsr,2013-01-28 07:55:00,
2013-01-28 02:59:00,34.3,28.3,-100.00,SE,135,0.0,0.7,71,0.00,,,0.00,fowsr,2013-01-28 07:59:00,
2013-01-28 03:00:00,34.3,28.3,29.65,SE,135,0.0,0.7,71,0.00,,,0.00,fowsr,2013-01-28 08:00:00,
2013-01-28 03:04:00,34.5,28.5,-100.00,SE,135,0.0,1.6,71,0.00,,,0.00,fowsr,2013-01-28 08:04:00,
2013-01-28 03:05:00,34.3,28.3,30.03,SE,135,0.0,0.7,71,0.00,,,0.00,fowsr,2013-01-28 08:05:00,
2013-01-28 03:09:00,34.5,28.5,-100.00,SE,135,0.0,0.7,71,0.00,,,0.00,fowsr,2013-01-28 08:09:00,
2013-01-28 03:10:00,34.5,28.5,30.03,SE,135,0.0,1.6,71,0.00,,,0.00,fowsr,2013-01-28 08:10:00,
2013-01-28 03:14:00,34.5,28.5,-100.00,SE,135,1.6,3.1,71,0.00,,,0.00,fowsr,2013-01-28 08:14:00,
2013-01-28 03:15:00,34.5,28.5,30.03,SE,135,0.0,0.0,71,0.00,,,0.00,fowsr,2013-01-28 08:15:00,
2013-01-28 03:19:00,34.5,28.5,-100.00,South,180,0.0,0.0,71,0.00,,,0.00,fowsr,2013-01-28 08:19:00,
2013-01-28 03:20:00,34.5,28.5,30.03,South,180,0.7,1.6,71,0.00,,,0.00,fowsr,2013-01-28 08:20:00,
2013-01-28 03:24:00,34.5,28.7,-100.00,SE,135,0.0,0.7,72,0.00,,,0.00,fowsr,2013-01-28 08:24:00,
2013-01-28 03:25:00,34.5,28.5,30.03,South,180,0.0,0.7,71,0.00,,,0.00,fowsr,2013-01-28 08:25:00,
2013-01-28 03:29:00,34.7,28.9,-100.00,SE,135,0.0,0.0,72,0.00,,,0.00,fowsr,2013-01-28 08:29:00,
2013-01-28 03:30:00,34.7,28.9,30.03,SE,135,0.0,0.0,72,0.00,,,0.00,fowsr,2013-01-28 08:30:00,
2013-01-28 03:34:00,34.7,28.9,-100.00,SE,135,0.0,0.7,72,0.00,,,0.00,fowsr,2013-01-28 08:34:00,
2013-01-28 03:35:00,34.7,28.9,30.04,SE,135,0.0,0.0,72,0.00,,,0.00,fowsr,2013-01-28 08:35:00,
2013-01-28 03:39:00,34.7,28.9,-100.00,West,270,0.0,0.0,72,0.00,,,0.00,fowsr,2013-01-28 08:39:00,
2013-01-28 03:40:00,34.7,28.9,29.66,SE,135,0.0,0.0,72,0.00,,,0.00,fowsr,2013-01-28 08:40:00,
2013-01-28 03:44:00,34.7,28.6,-100.00,East,90,0.0,0.7,71,0.00,,,0.00,fowsr,2013-01-28 08:44:00,
2013-01-28 03:45:00,34.7,28.6,30.03,West,270,0.0,0.0,71,0.00,,,0.00,fowsr,2013-01-28 08:45:00,
2013-01-28 03:49:00,34.7,28.6,-100.00,SE,135,0.0,0.0,71,0.00,,,0.00,fowsr,2013-01-28 08:49:00,
2013-01-28 03:50:00,34.7,28.6,30.03,SE,135,0.0,0.0,71,0.00,,,0.00,fowsr,2013-01-28 08:50:00,
2013-01-28 03:54:00,34.7,28.6,-100.00,SE,135,0.0,0.7,71,0.00,,,0.00,fowsr,2013-01-28 08:54:00,
2013-01-28 03:55:00,34.7,28.6,30.03,SE,135,0.0,0.0,71,0.00,,,0.00,fowsr,2013-01-28 08:55:00,
2013-01-28 03:59:00,34.7,28.6,-100.00,SE,135,0.0,0.0,71,0.00,,,0.00,fowsr,2013-01-28 08:59:00,
2013-01-28 04:04:00,34.7,28.6,-100.00,SE,135,0.0,0.7,71,0.00,,,0.00,fowsr,2013-01-28 09:04:00,
2013-01-28 04:05:00,34.7,28.6,30.02,SE,135,0.0,0.7,71,0.00,,,0.00,fowsr,2013-01-28 09:05:00,
2013-01-28 04:09:00,34.7,28.6,-100.00,East,90,0.0,0.7,71,0.00,,,0.00,fowsr,2013-01-28 09:09:00,
2013-01-28 04:10:00,34.7,28.6,30.02,SE,135,0.0,0.0,71,0.00,,,0.00,fowsr,2013-01-28 09:10:00,
2013-01-28 04:14:00,34.7,28.6,-100.00,SE,135,0.0,0.7,71,0.00,,,0.00,fowsr,2013-01-28 09:14:00,
2013-01-28 04:19:00,34.7,28.6,-100.00,SE,135,0.0,0.0,71,0.00,,,0.00,fowsr,2013-01-28 09:19:00,
2013-01-28 04:20:00,34.7,28.6,29.65,SE,135,0.0,0.7,71,0.00,,,0.00,fowsr,2013-01-28 09:20:00,
2013-01-28 04:24:00,34.7,28.6,-100.00,SE,135,0.0,0.7,71,0.00,,,0.00,fowsr,2013-01-28 09:24:00,
2013-01-28 04:25:00,34.7,28.6,30.02,SE,135,0.7,1.6,71,0.00,,,0.00,fowsr,2013-01-28 09:25:00,
2013-01-28 04:29:00,34.9,28.8,-100.00,SE,135,0.0,1.6,71,0.00,,,0.00,fowsr,2013-01-28 09:29:00,
2013-01-28 04:30:00,34.7,28.6,30.02,East,90,0.0,0.7,71,0.00,,,0.00,fowsr,2013-01-28 09:30:00,
2013-01-28 04:34:00,34.9,28.8,-100.00,SE,135,0.0,0.0,71,0.00,,,0.00,fowsr,2013-01-28 09:34:00,
2013-01-28 04:35:00,34.9,28.8,30.02,SE,135,0.0,0.7,71,0.00,,,0.00,fowsr,2013-01-28 09:35:00,
2013-01-28 04:39:00,34.9,28.8,-100.00,SE,135,0.0,0.7,71,0.00,,,0.00,fowsr,2013-01-28 09:39:00,
2013-01-28 04:40:00,34.9,28.8,30.02,SE,135,0.0,0.7,71,0.00,,,0.00,fowsr,2013-01-28 09:40:00,
2013-01-28 04:44:00,34.9,28.8,-100.00,SE,135,0.0,1.6,71,0.00,,,0.00,fowsr,2013-01-28 09:44:00,
2013-01-28 04:45:00,34.9,28.8,30.02,SE,135,0.0,0.7,71,0.00,,,0.00,fowsr,2013-01-28 09:45:00,
2013-01-28 04:49:00,34.9,28.8,-100.00,SE,135,0.0,1.6,71,0.00,,,0.00,fowsr,2013-01-28 09:49:00,
2013-01-28 04:50:00,34.9,28.8,30.01,SE,135,0.0,0.0,71,0.00,,,0.00,fowsr,2013-01-28 09:50:00,
2013-01-28 04:54:00,34.9,28.8,-100.00,SW,225,0.0,1.6,71,0.00,,,0.00,fowsr,2013-01-28 09:54:00,
2013-01-28 04:55:00,34.9,28.8,30.02,South,180,0.0,1.6,71,0.00,,,0.00,fowsr,2013-01-28 09:55:00,
2013-01-28 04:59:00,34.9,28.8,-100.00,SW,225,0.0,0.7,71,0.00,,,0.00,fowsr,2013-01-28 09:59:00,
2013-01-28 05:00:00,34.9,28.8,29.64,SW,225,0.0,0.7,71,0.00,,,0.00,fowsr,2013-01-28 10:00:00,
2013-01-28 05:04:00,34.9,29.1,-100.00,South,180,0.0,0.7,72,0.00,,,0.00,fowsr,2013-01-28 10:04:00,
2013-01-28 05:05:00,34.9,28.8,30.02,SW,225,0.0,0.7,71,0.00,,,0.00,fowsr,2013-01-28 10:05:00,
2013-01-28 05:09:00,34.9,29.1,-100.00,SE,135,0.0,0.7,72,0.00,,,0.00,fowsr,2013-01-28 10:09:00,
2013-01-28 05:10:00,34.9,29.1,30.02,South,180,0.0,0.0,72,0.00,,,0.00,fowsr,2013-01-28 10:10:00,
2013-01-28 05:14:00,34.9,29.1,-100.00,SE,135,0.0,0.7,72,0.00,,,0.00,fowsr,2013-01-28 10:14:00,
2013-01-28 05:15:00,34.9,29.1,30.02,SE,135,0.0,0.7,72,0.00,,,0.00,fowsr,2013-01-28 10:15:00,
2013-01-28 05:19:00,34.9,29.3,-100.00,SE,135,0.0,0.0,73,0.00,,,0.00,fowsr,2013-01-28 10:19:00,
2013-01-28 05:20:00,34.9,29.1,30.02,East,90,0.7,2.2,72,0.00,,,0.00,fowsr,2013-01-28 10:20:00,
2013-01-28 05:24:00,34.9,29.3,-100.00,SE,135,0.0,0.7,73,0.00,,,0.00,fowsr,2013-01-28 10:24:00,
2013-01-28 05:25:00,34.9,29.3,30.01,SE,135,0.0,0.7,73,0.00,,,0.00,fowsr,2013-01-28 10:25:00,
2013-01-28 05:29:00,34.7,29.1,-100.00,SE,135,0.0,0.0,73,0.00,,,0.00,fowsr,2013-01-28 10:29:00,
2013-01-28 05:30:00,34.9,29.3,30.01,SE,135,0.0,0.0,73,0.00,,,0.00,fowsr,2013-01-28 10:30:00,
2013-01-28 05:34:00,34.7,29.4,-100.00,SE,135,0.0,0.0,74,0.00,,,0.00,fowsr,2013-01-28 10:34:00,
2013-01-28 05:35:00,34.7,29.4,30.00,SE,135,0.0,0.0,74,0.00,,,0.00,fowsr,2013-01-28 10:35:00,
2013-01-28 05:39:00,34.7,29.6,-100.00,SE,135,0.0,0.0,75,0.00,,,0.00,fowsr,2013-01-28 10:39:00,
2013-01-28 05:40:00,34.7,29.6,29.63,SE,135,0.0,0.0,75,0.00,,,0.00,fowsr,2013-01-28 10:40:00,
2013-01-28 05:44:00,34.5,29.7,-100.00,SE,135,0.0,0.0,76,0.00,,,0.00,fowsr,2013-01-28 10:44:00,
2013-01-28 05:45:00,34.7,29.8,30.00,SE,135,0.0,0.0,76,0.00,,,0.00,fowsr,2013-01-28 10:45:00,
2013-01-28 05:49:00,34.5,29.9,-100.00,SE,135,0.0,0.0,77,0.01,,,0.01,fowsr,2013-01-28 10:49:00,
2013-01-28 05:50:00,34.5,29.7,30.00,SE,135,0.0,0.0,76,0.01,,,0.01,fowsr,2013-01-28 10:50:00,
2013-01-28 05:54:00,34.3,29.9,-100.00,SE,135,0.0,0.0,78,0.01,,,0.01,fowsr,2013-01-28 10:54:00,
2013-01-28 05:55:00,34.3,29.7,30.00,SE,135,0.0,0.0,77,0.01,,,0.01,fowsr,2013-01-28 10:55:00,
2013-01-28 05:59:00,34.3,30.2,-100.00,South,180,0.0,0.7,79,0.01,,,0.01,fowsr,2013-01-28 10:59:00,
2013-01-28 06:00:00,34.3,29.9,30.00,SE,135,0.0,0.0,78,0.01,,,0.01,fowsr,2013-01-28 11:00:00,
2013-01-28 06:04:00,34.3,30.2,-100.00,South,180,0.0,0.7,79,0.01,,,0.01,fowsr,2013-01-28 11:04:00,
2013-01-28 06:05:00,34.3,30.2,30.00,South,180,0.0,0.7,79,0.01,,,0.01,fowsr,2013-01-28 11:05:00,
2013-01-28 06:09:00,34.3,30.2,-100.00,SW,225,0.0,0.7,79,0.01,,,0.01,fowsr,2013-01-28 11:09:00,
2013-01-28 06:10:00,34.3,30.2,30.00,South,180,0.0,0.0,79,0.01,,,0.01,fowsr,2013-01-28 11:10:00,
2013-01-28 06:14:00,34.2,30.2,-100.00,SW,225,0.0,0.0,80,0.01,,,0.01,fowsr,2013-01-28 11:14:00,
2013-01-28 06:15:00,34.3,30.4,30.00,SW,225,0.0,0.0,80,0.01,,,0.01,fowsr,2013-01-28 11:15:00,
2013-01-28 06:19:00,34.2,30.2,-100.00,SW,225,0.0,0.0,80,0.01,,,0.01,fowsr,2013-01-28 11:19:00,
2013-01-28 06:20:00,34.2,30.2,30.01,SW,225,0.0,0.0,80,0.01,,,0.01,fowsr,2013-01-28 11:20:00,
2013-01-28 06:24:00,34.2,30.4,-100.00,SE,135,0.0,0.0,81,0.01,,,0.01,fowsr,2013-01-28 11:24:00,
2013-01-28 06:25:00,34.2,30.2,30.00,SW,225,0.0,0.7,80,0.01,,,0.01,fowsr,2013-01-28 11:25:00,
2013-01-28 06:29:00,34.2,30.4,-100.00,SE,135,0.0,0.0,81,0.01,,,0.01,fowsr,2013-01-28 11:29:00,
2013-01-28 06:30:00,34.2,30.4,30.00,SE,135,0.0,0.0,81,0.01,,,0.01,fowsr,2013-01-28 11:30:00,
2013-01-28 06:34:00,34.2,30.4,-100.00,SE,135,0.0,0.0,81,0.01,,,0.01,fowsr,2013-01-28 11:34:00,
2013-01-28 06:35:00,34.2,30.4,30.01,SE,135,0.0,0.0,81,0.01,,,0.01,fowsr,2013-01-28 11:35:00,
2013-01-28 06:39:00,34.2,30.4,-100.00,SE,135,0.0,0.7,81,0.01,,,0.01,fowsr,2013-01-28 11:39:00,
2013-01-28 06:40:00,34.2,30.4,30.00,SE,135,0.0,0.7,81,0.01,,,0.01,fowsr,2013-01-28 11:40:00,
2013-01-28 06:44:00,34.2,30.4,-100.00,SE,135,0.0,0.7,81,0.01,,,0.01,fowsr,2013-01-28 11:44:00,
2013-01-28 06:45:00,34.2,30.4,30.01,SE,135,0.0,0.0,81,0.01,,,0.01,fowsr,2013-01-28 11:45:00,
2013-01-28 06:49:00,34.2,30.4,-100.00,SE,135,0.0,0.7,81,0.01,,,0.01,fowsr,2013-01-28 11:49:00,
2013-01-28 06:50:00,34.2,30.4,30.00,SE,135,0.0,0.0,81,0.01,,,0.01,fowsr,2013-01-28 11:50:00,
2013-01-28 06:54:00,34.2,30.6,-100.00,SE,135,0.0,0.0,82,0.00,,,0.01,fowsr,2013-01-28 11:54:00,
2013-01-28 06:55:00,34.2,30.6,30.01,East,90,0.0,0.0,82,0.01,,,0.01,fowsr,2013-01-28 11:55:00,
2013-01-28 06:59:00,34.2,30.6,-100.00,SE,135,0.0,0.0,82,0.00,,,0.01,fowsr,2013-01-28 11:59:00,
2013-01-28 07:00:00,34.2,30.6,30.01,SE,135,0.0,0.0,82,0.00,,,0.01,fowsr,2013-01-28 12:00:00,
2013-01-28 07:04:00,34.3,30.8,-100.00,SE,135,0.0,0.0,82,0.00,,,0.01,fowsr,2013-01-28 12:04:00,
2013-01-28 07:05:00,34.2,30.6,30.01,SE,135,0.0,0.0,82,0.00,,,0.01,fowsr,2013-01-28 12:05:00,
2013-01-28 07:09:00,34.3,30.8,-100.00,West,270,0.0,0.0,82,0.00,,,0.01,fowsr,2013-01-28 12:09:00,
2013-01-28 07:10:00,34.3,30.8,30.01,SE,135,0.0,0.0,82,0.00,,,0.01,fowsr,2013-01-28 12:10:00,
2013-01-28 07:15:00,34.3,30.8,30.02,West,270,0.0,0.0,82,0.00,,,0.01,fowsr,2013-01-28 12:15:00,
2013-01-28 07:20:00,34.3,30.8,29.64,West,270,0.0,0.0,82,0.00,,,0.01,fowsr,2013-01-28 12:20:00,
2013-01-28 07:25:00,34.3,31.0,30.02,West,270,0.0,0.0,83,0.00,,,0.01,fowsr,2013-01-28 12:25:00,
2013-01-28 07:30:00,34.3,31.0,30.02,West,270,0.0,0.0,83,0.00,,,0.01,fowsr,2013-01-28 12:30:00,
2013-01-28 07:31:00,34.3,31.0,-100.00,West,270,0.0,0.0,83,0.00,,,0.01,fowsr,2013-01-28 12:31:00,
2013-01-28 07:35:00,34.3,31.0,30.01,West,270,0.0,0.0,83,0.00,,,0.01,fowsr,2013-01-28 12:35:00,
2013-01-28 07:36:00,34.3,31.0,-100.00,West,270,0.0,0.0,83,0.00,,,0.01,fowsr,2013-01-28 12:36:00,
2013-01-28 07:40:00,34.3,31.0,30.02,West,270,0.0,0.0,83,0.00,,,0.01,fowsr,2013-01-28 12:40:00,
2013-01-28 07:41:00,34.3,31.2,-100.00,West,270,0.0,0.0,84,0.00,,,0.01,fowsr,2013-01-28 12:41:00,
2013-01-28 07:45:00,34.3,31.0,30.02,West,270,0.0,0.0,83,0.00,,,0.01,fowsr,2013-01-28 12:45:00,
2013-01-28 07:47:00,34.3,31.2,-100.00,West,270,0.0,0.0,84,0.00,,,0.01,fowsr,2013-01-28 12:47:00,
2013-01-28 07:50:00,34.3,31.2,30.03,West,270,0.0,0.0,84,0.00,,,0.01,fowsr,2013-01-28 12:50:00,
2013-01-28 07:52:00,34.3,31.2,-100.00,SE,135,0.0,2.2,84,0.00,,,0.01,fowsr,2013-01-28 12:52:00,
2013-01-28 07:55:00,34.3,31.2,30.02,SE,135,0.0,0.0,84,0.00,,,0.01,fowsr,2013-01-28 12:55:00,
2013-01-28 07:57:00,34.3,31.2,-100.00,SE,135,0.0,0.7,84,0.00,,,0.01,fowsr,2013-01-28 12:57:00,
2013-01-28 08:00:00,34.3,31.2,29.64,SE,135,0.0,0.0,84,0.00,,,0.01,fowsr,2013-01-28 13:00:00,
2013-01-28 08:03:00,34.3,31.2,-100.00,SE,135,0.7,1.6,84,0.00,,,0.01,fowsr,2013-01-28 13:03:00,
2013-01-28 08:05:00,34.3,31.2,30.02,SE,135,0.0,0.7,84,0.00,,,0.01,fowsr,2013-01-28 13:05:00,
2013-01-28 08:08:00,34.3,31.2,-100.00,SE,135,0.0,0.7,84,0.00,,,0.01,fowsr,2013-01-28 13:08:00,
2013-01-28 08:10:00,34.3,31.2,30.02,East,90,0.0,0.7,84,0.00,,,0.01,fowsr,2013-01-28 13:10:00,
2013-01-28 08:13:00,34.3,31.2,-100.00,SE,135,0.0,0.7,84,0.00,,,0.01,fowsr,2013-01-28 13:13:00,
2013-01-28 08:15:00,34.3,31.2,30.02,SE,135,0.0,0.0,84,0.00,,,0.01,fowsr,2013-01-28 13:15:00,
2013-01-28 08:19:00,34.5,31.4,-100.00,East,90,0.7,1.6,84,0.00,,,0.01,fowsr,2013-01-28 13:19:00,
2013-01-28 08:20:00,34.3,31.2,30.02,SSE,157,0.0,0.0,84,0.00,,,0.01,fowsr,2013-01-28 13:20:00,
2013-01-28 08:24:00,34.5,31.4,-100.00,SE,135,0.0,1.6,84,0.00,,,0.01,fowsr,2013-01-28 13:24:00,
2013-01-28 08:25:00,34.5,31.4,30.02,East,90,0.0,0.7,84,0.00,,,0.01,fowsr,2013-01-28 13:25:00,
2013-01-28 08:29:00,34.7,31.6,-100.00,NE,45,0.0,0.0,84,0.00,,,0.01,fowsr,2013-01-28 13:29:00,
2013-01-28 08:30:00,34.5,31.2,30.03,East,90,0.0,0.7,83,0.00,,,0.01,fowsr,2013-01-28 13:30:00,
2013-01-28 08:35:00,34.7,31.6,30.02,NE,45,0.0,0.0,84,0.00,,,0.01,fowsr,2013-01-28 13:35:00,
2013-01-28 08:40:00,34.7,31.6,30.02,East,90,0.0,0.7,84,0.00,,,0.01,fowsr,2013-01-28 13:40:00,
2013-01-28 08:45:00,34.9,31.8,30.02,SE,135,0.0,0.7,84,0.00,,,0.01,fowsr,2013-01-28 13:45:00,
2013-01-28 08:50:00,35.1,31.9,30.02,SE,135,0.0,0.7,84,0.00,,,0.01,fowsr,2013-01-28 13:50:00,
2013-01-28 08:51:00,35.2,32.1,-100.00,SE,135,0.0,0.0,84,0.00,,,0.01,fowsr,2013-01-28 13:51:00,
2013-01-28 08:55:00,35.2,32.1,30.02,SE,135,0.0,0.0,84,0.00,,,0.01,fowsr,2013-01-28 13:55:00,
2013-01-28 08:56:00,35.4,32.3,-100.00,East,90,0.7,2.2,84,0.00,,,0.01,fowsr,2013-01-28 13:56:00,
2013-01-28 09:00:00,35.4,32.3,30.02,East,90,0.7,2.2,84,0.00,,,0.01,fowsr,2013-01-28 14:00:00,
2013-01-28 09:01:00,35.6,32.3,-100.00,East,90,0.0,0.7,83,0.00,,,0.01,fowsr,2013-01-28 14:01:00,
2013-01-28 09:05:00,35.6,32.3,30.02,South,180,0.0,0.7,83,0.00,,,0.01,fowsr,2013-01-28 14:05:00,
2013-01-28 09:07:00,35.8,32.4,-100.00,SW,225,0.0,0.7,83,0.00,,,0.01,fowsr,2013-01-28 14:07:00,
2013-01-28 09:10:00,35.8,32.4,30.01,NW,315,0.0,0.0,83,0.00,,,0.01,fowsr,2013-01-28 14:10:00,
2013-01-28 09:12:00,36.0,32.4,-100.00,SE,135,0.0,0.7,82,0.00,,,0.01,fowsr,2013-01-28 14:12:00,
2013-01-28 09:15:00,36.0,32.4,30.02,West,270,0.0,0.0,82,0.00,,,0.01,fowsr,2013-01-28 14:15:00,
2013-01-28 09:17:00,36.3,32.7,-100.00,SE,135,0.0,0.7,82,0.00,,,0.01,fowsr,2013-01-28 14:17:00,
2013-01-28 09:20:00,36.1,32.6,30.01,South,180,0.0,0.7,82,0.00,,,0.01,fowsr,2013-01-28 14:20:00,
2013-01-28 09:23:00,36.7,33.1,-100.00,East,90,0.0,0.0,82,0.00,,,0.01,fowsr,2013-01-28 14:23:00,
2013-01-28 09:25:00,36.5,32.9,30.01,SE,135,0.0,0.0,82,0.00,,,0.01,fowsr,2013-01-28 14:25:00,
2013-01-28 09:28:00,37.0,33.4,-100.00,SE,135,1.6,3.1,82,0.00,,,0.01,fowsr,2013-01-28 14:28:00,
2013-01-28 09:30:00,36.9,33.3,30.01,SE,135,1.6,3.8,82,0.00,,,0.01,fowsr,2013-01-28 14:30:00,
2013-01-28 09:33:00,37.6,34.8,-100.00,South,180,0.0,0.7,86,0.00,,,0.01,fowsr,2013-01-28 14:33:00,
2013-01-28 09:35:00,37.2,33.6,30.01,East,90,0.0,0.0,82,0.00,,,0.01,fowsr,2013-01-28 14:35:00,
2013-01-28 09:39:00,37.8,34.8,-100.00,SE,135,0.7,1.6,85,0.00,,,0.01,fowsr,2013-01-28 14:39:00,
2013-01-28 09:40:00,37.6,34.8,30.01,SE,135,0.0,1.6,86,0.00,,,0.01,fowsr,2013-01-28 14:40:00,
2013-01-28 09:44:00,38.1,35.1,-100.00,East,90,0.7,1.6,85,0.00,,,0.01,fowsr,2013-01-28 14:44:00,
2013-01-28 09:45:00,37.9,35.0,30.01,West,270,0.0,1.6,85,0.00,,,0.01,fowsr,2013-01-28 14:45:00,
2013-01-28 09:49:00,38.5,35.3,-100.00,SE,135,0.0,1.6,84,0.00,,,0.01,fowsr,2013-01-28 14:49:00,
2013-01-28 09:50:00,38.1,35.1,30.01,SE,135,0.0,0.7,85,0.00,,,0.01,fowsr,2013-01-28 14:50:00,
2013-01-28 09:55:00,38.5,35.3,30.00,SE,135,0.0,1.6,84,0.00,,,0.01,fowsr,2013-01-28 14:55:00,
2013-01-28 10:00:00,38.8,35.6,30.01,SSE,157,0.0,0.7,84,0.00,,,0.01,fowsr,2013-01-28 15:00:00,
2013-01-28 10:05:00,39.4,35.9,30.00,SW,225,0.0,1.6,83,0.00,,,0.01,fowsr,2013-01-28 15:05:00,
2013-01-28 10:10:00,39.6,35.9,30.00,North,0,0.0,0.7,82,0.00,,,0.01,fowsr,2013-01-28 15:10:00,
2013-01-28 10:11:00,39.7,35.8,-100.00,South,180,0.0,1.6,81,0.00,,,0.01,fowsr,2013-01-28 15:11:00,
2013-01-28 10:15:00,39.6,35.7,30.00,West,270,0.0,0.7,81,0.00,,,0.01,fowsr,2013-01-28 15:15:00,
2013-01-28 10:16:00,39.9,36.0,-100.00,North,0,0.7,2.2,81,0.00,,,0.01,fowsr,2013-01-28 15:16:00,
2013-01-28 10:20:00,39.9,36.0,30.01,SE,135,0.0,0.7,81,0.00,,,0.01,fowsr,2013-01-28 15:20:00,
2013-01-28 10:21:00,40.3,36.1,-100.00,East,90,0.0,0.7,80,0.00,,,0.01,fowsr,2013-01-28 15:21:00,
2013-01-28 10:25:00,40.3,36.1,30.01,NW,315,0.7,1.6,80,0.00,,,0.01,fowsr,2013-01-28 15:25:00,
2013-01-28 10:27:00,40.5,36.1,-100.00,NW,315,0.0,0.0,79,0.00,,,0.01,fowsr,2013-01-28 15:27:00,
2013-01-28 10:30:00,40.5,36.1,29.99,NW,315,0.0,1.6,79,0.00,,,0.01,fowsr,2013-01-28 15:30:00,
2013-01-28 10:32:00,40.8,36.2,-100.00,South,180,0.0,0.7,78,0.00,,,0.01,fowsr,2013-01-28 15:32:00,
2013-01-28 10:35:00,40.8,36.2,29.99,East,90,0.0,0.7,78,0.00,,,0.01,fowsr,2013-01-28 15:35:00,
2013-01-28 10:37:00,41.4,36.2,-100.00,West,270,0.0,0.0,76,0.00,,,0.01,fowsr,2013-01-28 15:37:00,
2013-01-28 10:40:00,41.2,36.3,30.00,SE,135,0.0,0.7,77,0.00,,,0.01,fowsr,2013-01-28 15:40:00,
2013-01-28 10:43:00,41.5,36.4,-100.00,West,270,0.0,0.7,76,0.00,,,0.01,fowsr,2013-01-28 15:43:00,
2013-01-28 10:45:00,41.5,36.4,29.99,SE,135,0.0,0.0,76,0.00,,,0.01,fowsr,2013-01-28 15:45:00,
2013-01-28 10:48:00,41.9,36.5,-100.00,East,90,0.0,0.7,75,0.00,,,0.01,fowsr,2013-01-28 15:48:00,
2013-01-28 10:50:00,41.7,36.4,29.99,East,90,0.0,1.6,75,0.00,,,0.01,fowsr,2013-01-28 15:50:00,
2013-01-28 10:53:00,42.1,36.5,-100.00,SW,225,1.6,2.2,74,0.00,,,0.01,fowsr,2013-01-28 15:53:00,
2013-01-28 10:55:00,41.9,36.5,29.99,South,180,1.6,3.1,75,0.00,,,0.01,fowsr,2013-01-28 15:55:00,
2013-01-28 10:59:00,42.6,37.0,-100.00,SE,135,1.6,2.2,74,0.00,,,0.01,fowsr,2013-01-28 15:59:00,
2013-01-28 11:00:00,42.3,36.6,29.99,South,180,0.0,0.0,74,0.00,,,0.01,fowsr,2013-01-28 16:00:00,
2013-01-28 11:04:00,43.0,36.8,-100.00,SW,225,0.7,1.6,72,0.00,,,0.01,fowsr,2013-01-28 16:04:00,
2013-01-28 11:05:00,42.6,37.0,29.98,NW,315,0.0,0.7,74,0.00,,,0.01,fowsr,2013-01-28 16:05:00,
2013-01-28 11:09:00,43.3,36.6,-100.00,SE,135,2.2,4.5,70,0.00,,,0.01,fowsr,2013-01-28 16:09:00,
2013-01-28 11:10:00,43.0,36.6,29.99,SE,135,0.0,0.7,71,0.00,,,0.01,fowsr,2013-01-28 16:10:00,
2013-01-28 11:15:00,43.3,36.6,29.98,SE,135,2.2,4.5,70,0.00,,,0.01,fowsr,2013-01-28 16:15:00,
2013-01-28 11:20:00,43.5,36.8,29.98,NW,315,0.7,1.6,70,0.00,,,0.01,fowsr,2013-01-28 16:20:00,
2013-01-28 11:25:00,43.7,37.0,29.97,South,180,0.7,1.6,70,0.00,,,0.01,fowsr,2013-01-28 16:25:00,
2013-01-28 11:30:00,43.9,37.2,29.97,SE,135,0.7,1.6,70,0.00,,,0.01,fowsr,2013-01-28 16:30:00,
2013-01-28 11:31:00,44.2,37.5,-100.00,NW,315,0.7,1.6,70,0.00,,,0.01,fowsr,2013-01-28 16:31:00,
2013-01-28 11:35:00,44.2,37.5,29.97,North,0,0.0,0.7,70,0.00,,,0.01,fowsr,2013-01-28 16:35:00,
2013-01-28 11:36:00,44.4,37.4,-100.00,SE,135,1.6,4.5,69,0.00,,,0.01,fowsr,2013-01-28 16:36:00,
2013-01-28 11:40:00,44.4,37.4,29.97,NE,45,0.0,0.7,69,0.00,,,0.01,fowsr,2013-01-28 16:40:00,
2013-01-28 11:41:00,44.8,37.5,-100.00,SE,135,0.7,3.1,68,0.00,,,0.01,fowsr,2013-01-28 16:41:00,
2013-01-28 11:45:00,44.8,37.5,29.96,North,0,0.7,2.2,68,0.00,,,0.01,fowsr,2013-01-28 16:45:00,
2013-01-28 11:47:00,45.3,38.0,-100.00,SE,135,2.2,3.1,68,0.00,,,0.01,fowsr,2013-01-28 16:47:00,
2013-01-28 11:50:00,45.1,37.8,29.96,SE,135,0.7,2.2,68,0.00,,,0.01,fowsr,2013-01-28 16:50:00,
2013-01-28 11:52:00,45.9,38.2,-100.00,SSE,157,0.0,0.7,67,0.00,,,0.01,fowsr,2013-01-28 16:52:00,
2013-01-28 11:55:00,45.7,38.3,29.96,North,0,0.7,1.6,68,0.00,,,0.01,fowsr,2013-01-28 16:55:00,
2013-01-28 11:57:00,46.2,38.0,-100.00,NW,315,0.0,0.0,65,0.00,,,0.01,fowsr,2013-01-28 16:57:00,
2013-01-28 12:00:00,46.0,38.4,29.96,NW,315,0.0,0.7,67,0.00,,,0.01,fowsr,2013-01-28 17:00:00,
2013-01-28 12:03:00,46.4,38.2,-100.00,NNE,22,0.0,0.7,65,0.00,,,0.01,fowsr,2013-01-28 17:03:00,
2013-01-28 12:05:00,46.2,38.0,29.95,South,180,0.0,0.7,65,0.00,,,0.01,fowsr,2013-01-28 17:05:00,
2013-01-28 12:08:00,46.4,37.9,-100.00,SE,135,0.0,1.6,64,0.00,,,0.01,fowsr,2013-01-28 17:08:00,
2013-01-28 12:10:00,46.4,38.2,29.94,SE,135,0.0,0.7,65,0.00,,,0.01,fowsr,2013-01-28 17:10:00,
2013-01-28 12:13:00,46.4,37.9,-100.00,NW,315,0.0,0.7,64,0.00,,,0.01,fowsr,2013-01-28 17:13:00,
2013-01-28 12:15:00,46.4,37.9,29.94,West,270,0.7,2.2,64,0.00,,,0.01,fowsr,2013-01-28 17:15:00,
2013-01-28 12:19:00,46.4,37.9,-100.00,NW,315,0.0,1.6,64,0.00,,,0.01,fowsr,2013-01-28 17:19:00,
2013-01-28 12:20:00,46.4,37.9,29.94,SW,225,0.0,0.7,64,0.00,,,0.01,fowsr,2013-01-28 17:20:00,
2013-01-28 12:24:00,46.6,38.1,-100.00,NW,315,0.0,0.0,64,0.00,,,0.01,fowsr,2013-01-28 17:24:00,
2013-01-28 12:25:00,46.6,38.1,29.94,SE,135,0.7,1.6,64,0.00,,,0.01,fowsr,2013-01-28 17:25:00,
2013-01-28 12:29:00,46.8,38.2,-100.00,South,180,0.0,0.7,64,0.00,,,0.01,fowsr,2013-01-28 17:29:00,
2013-01-28 12:30:00,46.6,38.1,29.93,NW,315,0.7,1.6,64,0.00,,,0.01,fowsr,2013-01-28 17:30:00,
2013-01-28 12:35:00,46.8,38.2,29.93,South,180,0.0,0.7,64,0.00,,,0.01,fowsr,2013-01-28 17:35:00,
2013-01-28 12:40:00,47.1,38.9,29.93,East,90,0.0,0.7,65,0.00,,,0.01,fowsr,2013-01-28 17:40:00,
2013-01-28 12:45:00,47.1,38.6,29.93,East,90,0.0,0.7,64,0.00,,,0.01,fowsr,2013-01-28 17:45:00,
2013-01-28 12:50:00,47.1,38.6,29.92,South,180,0.0,0.0,64,0.00,,,0.01,fowsr,2013-01-28 17:50:00,
2013-01-28 12:51:00,46.9,38.1,-100.00,West,270,0.0,1.6,63,0.00,,,0.01,fowsr,2013-01-28 17:51:00,
2013-01-28 12:55:00,47.1,38.3,29.92,North,0,0.0,0.7,63,0.00,,,0.01,fowsr,2013-01-28 17:55:00,
2013-01-28 12:56:00,46.9,38.1,-100.00,East,90,0.0,0.7,63,0.00,,,0.01,fowsr,2013-01-28 17:56:00,
2013-01-28 13:00:00,46.9,38.1,29.91,SSE,157,0.0,0.7,63,0.00,,,0.01,fowsr,2013-01-28 18:00:00,
2013-01-28 13:01:00,46.8,37.6,-100.00,NE,45,0.0,0.7,62,0.00,,,0.01,fowsr,2013-01-28 18:01:00,
2013-01-28 13:05:00,46.8,37.6,29.91,SW,225,0.7,2.2,62,0.00,,,0.01,fowsr,2013-01-28 18:05:00,
2013-01-28 13:07:00,46.8,37.6,-100.00,SE,135,0.0,0.7,62,0.00,,,0.01,fowsr,2013-01-28 18:07:00,
2013-01-28 13:10:00,46.8,37.6,29.90,East,90,0.0,0.7,62,0.00,,,0.01,fowsr,2013-01-28 18:10:00,
2013-01-28 13:12:00,46.9,38.1,-100.00,SE,135,0.7,1.6,63,0.00,,,0.01,fowsr,2013-01-28 18:12:00,
2013-01-28 13:15:00,46.9,38.1,29.89,SE,135,0.7,1.6,63,0.00,,,0.01,fowsr,2013-01-28 18:15:00,
2013-01-28 13:17:00,47.1,38.0,-100.00,NNW,337,0.0,1.6,62,0.00,,,0.01,fowsr,2013-01-28 18:17:00,
2013-01-28 13:20:00,47.1,38.0,29.89,SW,225,0.7,1.6,62,0.00,,,0.01,fowsr,2013-01-28 18:20:00,
2013-01-28 13:23:00,47.1,38.3,-100.00,East,90,0.0,1.6,63,0.00,,,0.01,fowsr,2013-01-28 18:23:00,
2013-01-28 13:25:00,47.1,38.0,29.89,NE,45,0.0,1.6,62,0.00,,,0.01,fowsr,2013-01-28 18:25:00,
2013-01-28 13:28:00,47.5,38.6,-100.00,NW,315,0.7,2.2,63,0.00,,,0.01,fowsr,2013-01-28 18:28:00,
2013-01-28 13:30:00,47.3,38.4,29.88,NW,315,0.7,3.1,63,0.00,,,0.01,fowsr,2013-01-28 18:30:00,
2013-01-28 13:33:00,47.8,39.2,-100.00,SE,135,1.6,3.1,64,0.00,,,0.01,fowsr,2013-01-28 18:33:00,
2013-01-28 13:35:00,47.5,38.6,29.88,NW,315,0.7,1.6,63,0.00,,,0.01,fowsr,2013-01-28 18:35:00,
2013-01-28 13:39:00,48.2,39.3,-100.00,East,90,0.0,1.6,63,0.00,,,0.01,fowsr,2013-01-28 18:39:00,
2013-01-28 13:40:00,47.8,39.2,29.88,SE,135,0.7,3.1,64,0.00,,,0.01,fowsr,2013-01-28 18:40:00,
2013-01-28 13:44:00,48.4,39.8,-100.00,SE,135,0.0,1.6,64,0.00,,,0.01,fowsr,2013-01-28 18:44:00,
2013-01-28 13:45:00,48.2,39.3,29.88,West,270,0.7,2.2,63,0.00,,,0.01,fowsr,2013-01-28 18:45:00,
2013-01-28 13:49:00,49.3,40.6,-100.00,NW,315,0.7,1.6,64,0.00,,,0.01,fowsr,2013-01-28 18:49:00,
2013-01-28 13:50:00,48.4,39.8,29.87,NW,315,0.7,1.6,64,0.00,,,0.01,fowsr,2013-01-28 18:50:00,
2013-01-28 13:55:00,49.3,40.6,29.87,NW,315,0.7,1.6,64,0.00,,,0.01,fowsr,2013-01-28 18:55:00,
2013-01-28 14:00:00,50.0,41.0,29.87,NW,315,1.6,2.2,63,0.00,,,0.01,fowsr,2013-01-28 19:00:00,
2013-01-28 14:05:00,50.4,41.3,29.86,SE,135,1.6,4.5,63,0.00,,,0.01,fowsr,2013-01-28 19:05:00,
2013-01-28 14:10:00,50.5,41.5,29.86,SE,135,1.6,2.2,63,0.00,,,0.01,fowsr,2013-01-28 19:10:00,
2013-01-28 14:11:00,50.5,41.2,-100.00,SE,135,2.2,4.5,62,0.00,,,0.01,fowsr,2013-01-28 19:11:00,
2013-01-28 14:15:00,50.5,41.2,29.86,SE,135,2.2,3.8,62,0.00,,,0.01,fowsr,2013-01-28 19:15:00,
2013-01-28 14:16:00,50.4,41.3,-100.00,East,90,0.7,2.2,63,0.00,,,0.01,fowsr,2013-01-28 19:16:00,
2013-01-28 14:20:00,50.4,41.3,29.85,East,90,0.7,2.2,63,0.00,,,0.01,fowsr,2013-01-28 19:20:00,
2013-01-28 14:21:00,50.0,41.0,-100.00,SE,135,1.6,3.8,63,0.00,,,0.01,fowsr,2013-01-28 19:21:00,
2013-01-28 14:25:00,50.2,41.1,29.86,South,180,1.6,3.1,63,0.00,,,0.01,fowsr,2013-01-28 19:25:00,
2013-01-28 14:27:00,50.0,41.0,-100.00,East,90,0.0,1.6,63,0.00,,,0.01,fowsr,2013-01-28 19:27:00,
2013-01-28 14:30:00,50.0,41.0,29.85,East,90,0.7,2.2,63,0.00,,,0.01,fowsr,2013-01-28 19:30:00,
2013-01-28 14:32:00,49.8,41.4,-100.00,East,90,0.0,0.0,65,0.00,,,0.01,fowsr,2013-01-28 19:32:00,
2013-01-28 14:35:00,49.8,41.1,29.86,SE,135,0.7,1.6,64,0.00,,,0.01,fowsr,2013-01-28 19:35:00,
2013-01-28 14:37:00,50.0,41.3,-100.00,South,180,0.0,0.7,64,0.00,,,0.01,fowsr,2013-01-28 19:37:00,
2013-01-28 14:40:00,50.0,41.3,29.85,West,270,0.0,1.6,64,0.00,,,0.01,fowsr,2013-01-28 19:40:00,
2013-01-28 14:43:00,50.2,41.4,-100.00,East,90,0.0,0.7,64,0.00,,,0.01,fowsr,2013-01-28 19:43:00,
2013-01-28 14:45:00,50.0,41.3,29.85,SE,135,0.0,0.0,64,0.00,,,0.01,fowsr,2013-01-28 19:45:00,
2013-01-28 14:48:00,50.2,41.7,-100.00,South,180,0.0,0.7,65,0.00,,,0.01,fowsr,2013-01-28 19:48:00,
2013-01-28 14:50:00,50.2,41.7,29.85,NW,315,0.0,0.7,65,0.00,,,0.01,fowsr,2013-01-28 19:50:00,
2013-01-28 14:53:00,50.4,41.9,-100.00,SE,135,0.0,0.0,65,0.00,,,0.01,fowsr,2013-01-28 19:53:00,
2013-01-28 14:55:00,50.4,41.9,29.85,NW,315,0.0,0.7,65,0.00,,,0.01,fowsr,2013-01-28 19:55:00,
2013-01-28 14:59:00,50.4,41.9,-100.00,NW,315,0.0,0.7,65,0.00,,,0.01,fowsr,2013-01-28 19:59:00,
2013-01-28 15:00:00,50.4,41.9,29.85,SW,225,0.0,0.7,65,0.00,,,0.01,fowsr,2013-01-28 20:00:00,
2013-01-28 15:04:00,50.7,42.2,-100.00,NW,315,0.0,0.0,65,0.00,,,0.01,fowsr,2013-01-28 20:04:00,
2013-01-28 15:05:00,50.5,42.1,29.85,North,0,0.0,0.7,65,0.00,,,0.01,fowsr,2013-01-28 20:05:00,
2013-01-28 15:09:00,50.9,42.4,-100.00,South,180,0.0,0.7,65,0.00,,,0.01,fowsr,2013-01-28 20:09:00,
2013-01-28 15:10:00,50.7,42.2,29.85,NW,315,0.0,0.0,65,0.00,,,0.01,fowsr,2013-01-28 20:10:00,
2013-01-28 15:15:00,50.9,42.4,29.85,South,180,0.0,0.7,65,0.00,,,0.01,fowsr,2013-01-28 20:15:00,
2013-01-28 15:20:00,51.1,42.6,29.85,SE,135,0.0,0.7,65,0.00,,,0.01,fowsr,2013-01-28 20:20:00,
2013-01-28 15:25:00,51.1,42.9,29.85,NW,315,0.7,2.2,66,0.00,,,0.01,fowsr,2013-01-28 20:25:00,
2013-01-28 15:30:00,51.1,42.9,29.85,West,270,0.0,1.6,66,0.00,,,0.01,fowsr,2013-01-28 20:30:00,
2013-01-28 15:31:00,51.1,42.9,-100.00,NW,315,0.7,2.2,66,0.00,,,0.01,fowsr,2013-01-28 20:31:00,
2013-01-28 15:35:00,51.1,42.9,29.84,NW,315,0.7,1.6,66,0.00,,,0.01,fowsr,2013-01-28 20:35:00,
2013-01-28 15:36:00,51.3,43.0,-100.00,West,270,0.0,1.6,66,0.00,,,0.01,fowsr,2013-01-28 20:36:00,
2013-01-28 15:40:00,51.3,43.0,29.85,West,270,0.0,1.6,66,0.00,,,0.01,fowsr,2013-01-28 20:40:00,
2013-01-28 15:41:00,51.4,43.2,-100.00,West,270,0.0,1.6,66,0.00,,,0.01,fowsr,2013-01-28 20:41:00,
2013-01-28 15:45:00,51.4,43.2,29.84,West,270,0.0,1.6,66,0.00,,,0.01,fowsr,2013-01-28 20:45:00,
2013-01-28 15:46:00,51.4,43.2,-100.00,East,90,0.0,0.7,66,0.00,,,0.01,fowsr,2013-01-28 20:46:00,
2013-01-28 15:50:00,51.4,43.2,29.83,East,90,0.0,0.7,66,0.00,,,0.01,fowsr,2013-01-28 20:50:00,
2013-01-28 15:51:00,51.4,43.2,-100.00,West,270,0.0,0.7,66,0.00,,,0.01,fowsr,2013-01-28 20:51:00,
2013-01-28 15:55:00,51.4,43.2,29.83,NW,315,0.0,0.7,66,0.00,,,0.01,fowsr,2013-01-28 20:55:00,
2013-01-28 15:56:00,51.6,43.4,-100.00,South,180,0.7,1.6,66,0.00,,,0.01,fowsr,2013-01-28 20:56:00,
2013-01-28 16:00:00,51.6,43.4,29.83,South,180,0.7,1.6,66,0.00,,,0.01,fowsr,2013-01-28 21:00:00,
2013-01-28 16:01:00,51.6,43.4,-100.00,West,270,0.0,0.0,66,0.00,,,0.01,fowsr,2013-01-28 21:01:00,
2013-01-28 16:05:00,51.6,43.4,29.83,SE,135,0.0,0.7,66,0.00,,,0.01,fowsr,2013-01-28 21:05:00,
2013-01-28 16:07:00,51.6,43.7,-100.00,South,180,0.0,0.0,67,0.00,,,0.01,fowsr,2013-01-28 21:07:00,
2013-01-28 16:10:00,51.6,43.7,29.83,South,180,0.0,0.7,67,0.00,,,0.01,fowsr,2013-01-28 21:10:00,
2013-01-28 16:12:00,51.6,43.7,-100.00,NE,45,0.0,0.7,67,0.00,,,0.01,fowsr,2013-01-28 21:12:00,
2013-01-28 16:15:00,51.6,43.7,29.83,SE,135,0.0,1.6,67,0.00,,,0.01,fowsr,2013-01-28 21:15:00,
2013-01-28 16:17:00,51.8,43.6,-100.00,West,270,0.0,0.0,66,0.00,,,0.01,fowsr,2013-01-28 21:17:00,
2013-01-28 16:20:00,51.8,43.6,29.83,West,270,0.0,0.0,66,0.00,,,0.01,fowsr,2013-01-28 21:20:00,
2013-01-28 16:23:00,51.8,43.8,-100.00,East,90,0.0,0.0,67,0.00,,,0.01,fowsr,2013-01-28 21:23:00,
2013-01-28 16:25:00,51.8,43.8,29.83,West,270,0.0,0.0,67,0.00,,,0.01,fowsr,2013-01-28 21:25:00,
2013-01-28 16:28:00,52.0,44.3,-100.00,East,90,0.7,1.6,68,0.00,,,0.01,fowsr,2013-01-28 21:28:00,
2013-01-28 16:30:00,51.8,44.1,29.83,East,90,3.8,6.0,68,0.00,,,0.01,fowsr,2013-01-28 21:30:00,
2013-01-28 16:33:00,52.2,44.8,-100.00,East,90,0.0,0.0,69,0.00,,,0.01,fowsr,2013-01-28 21:33:00,
2013-01-28 16:35:00,52.0,44.6,29.82,North,0,0.0,0.7,69,0.00,,,0.01,fowsr,2013-01-28 21:35:00,
2013-01-28 16:39:00,52.2,44.8,-100.00,South,180,0.0,1.6,69,0.00,,,0.01,fowsr,2013-01-28 21:39:00,
2013-01-28 16:40:00,52.2,44.8,29.83,NE,45,0.0,0.7,69,0.00,,,0.01,fowsr,2013-01-28 21:40:00,
2013-01-28 16:44:00,52.2,44.8,-100.00,SE,135,2.2,3.8,69,0.00,,,0.01,fowsr,2013-01-28 21:44:00,
2013-01-28 16:45:00,52.2,44.8,29.82,ESE,112,0.0,1.6,69,0.00,,,0.01,fowsr,2013-01-28 21:45:00,
2013-01-28 16:49:00,52.2,45.0,-100.00,SE,135,0.0,1.6,70,0.00,,,0.01,fowsr,2013-01-28 21:49:00,
2013-01-28 16:50:00,52.2,45.0,29.82,SE,135,1.6,3.1,70,0.00,,,0.01,fowsr,2013-01-28 21:50:00,
2013-01-28 16:55:00,52.2,45.0,29.82,SE,135,0.0,1.6,70,0.00,,,0.01,fowsr,2013-01-28 21:55:00,
2013-01-28 17:00:00,52.2,45.0,29.82,NE,45,0.0,0.7,70,0.00,,,0.01,fowsr,2013-01-28 22:00:00,
2013-01-28 17:05:00,52.2,45.0,29.82,SE,135,0.7,1.6,70,0.00,,,0.01,fowsr,2013-01-28 22:05:00,
2013-01-28 17:10:00,52.2,45.0,29.82,South,180,0.7,1.6,70,0.00,,,0.01,fowsr,2013-01-28 22:10:00,
2013-01-28 17:11:00,52.2,45.0,-100.00,NW,315,0.0,0.0,70,0.00,,,0.01,fowsr,2013-01-28 22:11:00,
2013-01-28 17:15:00,52.2,45.0,29.82,NW,315,0.0,0.0,70,0.00,,,0.01,fowsr,2013-01-28 22:15:00,
2013-01-28 17:16:00,52.0,44.9,-100.00,North,0,0.0,0.7,70,0.00,,,0.01,fowsr,2013-01-28 22:16:00,
2013-01-28 17:20:00,52.0,44.9,29.82,North,0,0.0,0.7,70,0.00,,,0.01,fowsr,2013-01-28 22:20:00,
2013-01-28 17:21:00,52.0,44.9,-100.00,SE,135,0.0,0.0,70,0.00,,,0.01,fowsr,2013-01-28 22:21:00,
2013-01-28 17:25:00,52.0,44.9,29.83,SE,135,0.0,0.7,70,0.00,,,0.01,fowsr,2013-01-28 22:25:00,
2013-01-28 17:27:00,52.0,45.1,-100.00,SE,135,0.0,0.0,71,0.00,,,0.01,fowsr,2013-01-28 22:27:00,
2013-01-28 17:30:00,52.0,45.1,29.83,SE,135,0.0,0.0,71,0.00,,,0.01,fowsr,2013-01-28 22:30:00,
2013-01-28 17:32:00,52.0,45.1,-100.00,SE,135,0.0,0.0,71,0.00,,,0.01,fowsr,2013-01-28 22:32:00,
2013-01-28 17:35:00,52.0,45.1,29.82,SE,135,0.0,0.7,71,0.00,,,0.01,fowsr,2013-01-28 22:35:00,
2013-01-28 17:37:00,51.8,45.0,-100.00,SE,135,0.0,0.0,71,0.00,,,0.01,fowsr,2013-01-28 22:37:00,
2013-01-28 17:40:00,52.0,45.1,29.83,SE,135,0.0,0.0,71,0.00,,,0.01,fowsr,2013-01-28 22:40:00,
2013-01-28 17:43:00,51.8,45.0,-100.00,SE,135,0.0,1.6,71,0.00,,,0.01,fowsr,2013-01-28 22:43:00,
2013-01-28 17:45:00,51.8,45.0,29.82,South,180,0.0,0.0,71,0.00,,,0.01,fowsr,2013-01-28 22:45:00,
2013-01-28 17:48:00,51.8,45.0,-100.00,East,90,0.0,0.0,71,0.00,,,0.01,fowsr,2013-01-28 22:48:00,
2013-01-28 17:50:00,51.8,45.0,29.82,East,90,0.0,0.0,71,0.00,,,0.01,fowsr,2013-01-28 22:50:00,
2013-01-28 17:53:00,51.8,45.0,-100.00,East,90,0.0,0.0,71,0.00,,,0.01,fowsr,2013-01-28 22:53:00,
2013-01-28 17:55:00,51.8,45.0,29.83,East,90,0.0,0.0,71,0.00,,,0.01,fowsr,2013-01-28 22:55:00,
2013-01-28 17:59:00,51.6,45.1,-100.00,East,90,0.0,0.0,72,0.00,,,0.01,fowsr,2013-01-28 22:59:00,
2013-01-28 18:00:00,51.6,45.1,29.83,East,90,0.0,0.0,72,0.00,,,0.01,fowsr,2013-01-28 23:00:00,
2013-01-28 18:04:00,51.4,44.9,-100.00,East,90,0.0,0.0,72,0.00,,,0.01,fowsr,2013-01-28 23:04:00,
2013-01-28 18:05:00,51.6,45.1,29.83,East,90,0.0,0.0,72,0.00,,,0.01,fowsr,2013-01-28 23:05:00,
2013-01-28 18:09:00,51.4,45.2,-100.00,East,90,0.0,0.0,73,0.00,,,0.01,fowsr,2013-01-28 23:09:00,
2013-01-28 18:10:00,51.4,44.9,29.83,East,90,0.0,0.0,72,0.00,,,0.01,fowsr,2013-01-28 23:10:00,
2013-01-28 18:15:00,51.4,45.2,29.83,East,90,0.0,0.0,73,0.00,,,0.01,fowsr,2013-01-28 23:15:00,
2013-01-28 18:20:00,51.3,45.0,29.83,East,90,0.0,0.0,73,0.00,,,0.01,fowsr,2013-01-28 23:20:00,
2013-01-28 18:25:00,51.3,45.0,29.83,East,90,0.0,0.0,73,0.00,,,0.01,fowsr,2013-01-28 23:25:00,
2013-01-28 18:30:00,51.3,45.0,29.83,NE,45,0.0,0.7,73,0.00,,,0.01,fowsr,2013-01-28 23:30:00,
2013-01-28 18:31:00,51.3,45.0,-100.00,SE,135,0.0,0.0,73,0.00,,,0.01,fowsr,2013-01-28 23:31:00,
2013-01-28 18:35:00,51.3,45.0,29.83,SE,135,0.0,0.0,73,0.00,,,0.01,fowsr,2013-01-28 23:35:00,
2013-01-28 18:36:00,51.1,44.8,-100.00,SE,135,0.0,0.0,73,0.00,,,0.01,fowsr,2013-01-28 23:36:00,
2013-01-28 18:40:00,51.1,44.8,29.83,SE,135,0.0,0.0,73,0.00,,,0.01,fowsr,2013-01-28 23:40:00,
2013-01-28 18:41:00,51.1,44.8,-100.00,SE,135,0.0,0.0,73,0.00,,,0.01,fowsr,2013-01-28 23:41:00,
2013-01-28 18:45:00,51.1,44.8,29.83,SE,135,0.0,0.0,73,0.00,,,0.01,fowsr,2013-01-28 23:45:00,
2013-01-28 18:47:00,50.9,44.9,-100.00,SE,135,0.0,0.0,74,0.00,,,0.01,fowsr,2013-01-28 23:47:00,
2013-01-28 18:50:00,51.1,45.1,29.83,SE,135,0.0,0.0,74,0.00,,,0.01,fowsr,2013-01-28 23:50:00,
2013-01-28 18:52:00,50.9,44.9,-100.00,SE,135,0.0,0.0,74,0.00,,,0.01,fowsr,2013-01-28 23:52:00,
2013-01-28 18:55:00,50.9,44.9,29.83,SE,135,0.0,0.0,74,0.00,,,0.01,fowsr,2013-01-28 23:55:00,
2013-01-28 19:00:00,50.7,45.0,29.83,SE,135,0.0,0.7,75,0.00,,,0.01,fowsr,2013-01-29 00:00:00,
2013-01-28 19:02:00,50.7,45.0,-100.00,SE,135,0.0,0.7,75,0.00,,,0.01,fowsr,2013-01-29 00:02:00,
2013-01-28 19:05:00,50.7,45.0,29.82,SE,135,0.0,0.7,75,0.00,,,0.01,fowsr,2013-01-29 00:05:00,
2013-01-28 19:07:00,50.7,45.0,-100.00,West,270,0.0,0.0,75,0.00,,,0.01,fowsr,2013-01-29 00:07:00,
2013-01-28 19:10:00,50.7,45.0,29.82,West,270,0.0,0.0,75,0.00,,,0.01,fowsr,2013-01-29 00:10:00,
2013-01-28 19:12:00,50.7,45.0,-100.00,South,180,0.0,0.0,75,0.00,,,0.01,fowsr,2013-01-29 00:12:00,
2013-01-28 19:15:00,50.7,45.0,29.83,South,180,0.0,0.0,75,0.00,,,0.01,fowsr,2013-01-29 00:15:00,
2013-01-28 19:17:00,50.7,45.0,-100.00,NW,315,0.0,0.0,75,0.00,,,0.01,fowsr,2013-01-29 00:17:00,
2013-01-28 19:20:00,50.7,45.0,29.83,North,0,0.0,0.0,75,0.00,,,0.01,fowsr,2013-01-29 00:20:00,
2013-01-28 19:23:00,50.5,44.8,-100.00,NW,315,0.0,0.0,75,0.00,,,0.01,fowsr,2013-01-29 00:23:00,
2013-01-28 19:25:00,50.7,45.0,29.84,NW,315,0.0,0.0,75,0.00,,,0.01,fowsr,2013-01-29 00:25:00,
2013-01-28 19:28:00,50.5,44.8,-100.00,SE,135,0.0,0.7,75,0.00,,,0.01,fowsr,2013-01-29 00:28:00,
2013-01-28 19:30:00,50.5,44.8,29.83,NW,315,0.0,0.0,75,0.00,,,0.01,fowsr,2013-01-29 00:30:00,
2013-01-28 19:33:00,50.5,45.1,-100.00,South,180,0.0,0.0,76,0.00,,,0.01,fowsr,2013-01-29 00:33:00,
2013-01-28 19:35:00,50.5,45.1,29.83,South,180,0.0,0.0,76,0.00,,,0.01,fowsr,2013-01-29 00:35:00,
2013-01-28 19:39:00,50.5,45.1,-100.00,South,180,0.0,0.0,76,0.00,,,0.01,fowsr,2013-01-29 00:39:00,
2013-01-28 19:40:00,50.5,45.1,29.83,South,180,0.0,0.0,76,0.00,,,0.01,fowsr,2013-01-29 00:40:00,
2013-01-28 19:44:00,50.5,45.1,-100.00,South,180,0.0,0.0,76,0.00,,,0.01,fowsr,2013-01-29 00:44:00,
2013-01-28 19:45:00,50.5,45.1,29.83,South,180,0.0,0.0,76,0.00,,,0.01,fowsr,2013-01-29 00:45:00,
2013-01-28 19:49:00,50.5,45.1,-100.00,South,180,0.0,0.0,76,0.00,,,0.01,fowsr,2013-01-29 00:49:00,
2013-01-28 19:50:00,50.5,45.1,29.83,South,180,0.0,0.0,76,0.00,,,0.01,fowsr,2013-01-29 00:50:00,
2013-01-28 19:55:00,50.5,45.1,29.83,South,180,0.0,0.0,76,0.00,,,0.01,fowsr,2013-01-29 00:55:00,
2013-01-28 20:00:00,50.5,45.1,29.82,South,180,0.0,0.0,76,0.00,,,0.01,fowsr,2013-01-29 01:00:00,
2013-01-28 20:05:00,50.5,45.1,29.82,SE,135,0.0,0.0,76,0.00,,,0.01,fowsr,2013-01-29 01:05:00,
2013-01-28 20:10:00,50.5,45.1,29.81,SE,135,0.0,0.7,76,0.00,,,0.01,fowsr,2013-01-29 01:10:00,
2013-01-28 20:11:00,50.5,45.1,-100.00,SE,135,0.0,0.0,76,0.00,,,0.01,fowsr,2013-01-29 01:11:00,
2013-01-28 20:15:00,50.5,45.1,29.81,SE,135,0.0,0.7,76,0.00,,,0.01,fowsr,2013-01-29 01:15:00,
2013-01-28 20:16:00,50.5,45.1,-100.00,NW,315,0.0,0.0,76,0.00,,,0.01,fowsr,2013-01-29 01:16:00,
2013-01-28 20:20:00,50.5,45.1,29.82,NW,315,0.0,0.0,76,0.00,,,0.01,fowsr,2013-01-29 01:20:00,
2013-01-28 20:21:00,50.4,44.9,-100.00,East,90,0.7,1.6,76,0.00,,,0.01,fowsr,2013-01-29 01:21:00,
2013-01-28 20:25:00,50.4,44.9,29.81,NE,45,0.0,0.7,76,0.00,,,0.01,fowsr,2013-01-29 01:25:00,
2013-01-28 20:27:00,50.4,44.9,-100.00,SE,135,0.0,0.0,76,0.00,,,0.01,fowsr,2013-01-29 01:27:00,
2013-01-28 20:30:00,50.4,44.9,29.81,SE,135,0.0,0.0,76,0.00,,,0.01,fowsr,2013-01-29 01:30:00,
2013-01-28 20:32:00,50.4,44.9,-100.00,East,90,0.0,0.0,76,0.00,,,0.01,fowsr,2013-01-29 01:32:00,
2013-01-28 20:35:00,50.4,44.9,29.81,East,90,0.0,0.0,76,0.00,,,0.01,fowsr,2013-01-29 01:35:00,
2013-01-28 20:37:00,50.5,45.1,-100.00,ENE,67,0.0,1.6,76,0.00,,,0.01,fowsr,2013-01-29 01:37:00,
2013-01-28 20:40:00,50.5,45.1,29.81,East,90,0.0,0.0,76,0.00,,,0.01,fowsr,2013-01-29 01:40:00,
2013-01-28 20:43:00,50.5,45.1,-100.00,SE,135,0.0,0.0,76,0.00,,,0.01,fowsr,2013-01-29 01:43:00,
2013-01-28 20:45:00,50.5,45.1,29.81,SE,135,0.0,0.0,76,0.00,,,0.01,fowsr,2013-01-29 01:45:00,
2013-01-28 20:48:00,50.5,45.1,-100.00,NE,45,0.0,0.0,76,0.00,,,0.01,fowsr,2013-01-29 01:48:00,
2013-01-28 20:50:00,50.5,45.1,29.81,NE,45,0.0,0.0,76,0.00,,,0.01,fowsr,2013-01-29 01:50:00,
2013-01-28 20:53:00,50.5,45.1,-100.00,NE,45,0.7,1.6,76,0.00,,,0.01,fowsr,2013-01-29 01:53:00,
2013-01-28 20:59:00,50.5,45.1,-100.00,SE,135,0.0,0.7,76,0.00,,,0.01,fowsr,2013-01-29 01:59:00,
2013-01-28 21:00:00,50.5,45.1,29.81,SE,135,0.0,0.7,76,0.00,,,0.01,fowsr,2013-01-29 02:00:00,
2013-01-28 21:04:00,50.7,45.3,-100.00,SE,135,0.0,0.7,76,0.00,,,0.01,fowsr,2013-01-29 02:04:00,
2013-01-28 21:05:00,50.5,45.1,29.80,SE,135,0.0,0.7,76,0.00,,,0.01,fowsr,2013-01-29 02:05:00,
2013-01-28 21:09:00,50.7,45.5,-100.00,East,90,0.0,0.0,77,0.00,,,0.01,fowsr,2013-01-29 02:09:00,
2013-01-28 21:10:00,50.7,45.3,29.80,SE,135,0.0,0.0,76,0.00,,,0.01,fowsr,2013-01-29 02:10:00,
2013-01-28 21:15:00,50.7,45.5,29.81,East,90,0.0,0.0,77,0.00,,,0.01,fowsr,2013-01-29 02:15:00,
2013-01-28 21:20:00,50.7,45.5,29.81,East,90,0.0,0.0,77,0.00,,,0.01,fowsr,2013-01-29 02:20:00,
2013-01-28 21:25:00,50.7,45.5,29.81,NW,315,0.0,0.0,77,0.00,,,0.01,fowsr,2013-01-29 02:25:00,
2013-01-28 21:30:00,50.7,45.5,29.81,NW,315,0.0,0.0,77,0.00,,,0.01,fowsr,2013-01-29 02:30:00,
2013-01-28 21:31:00,50.7,45.5,-100.00,North,0,0.0,0.0,77,0.00,,,0.01,fowsr,2013-01-29 02:31:00,
2013-01-28 21:35:00,50.7,45.5,29.81,North,0,0.0,0.7,77,0.00,,,0.01,fowsr,2013-01-29 02:35:00,
2013-01-28 21:36:00,50.5,45.3,-100.00,NW,315,0.0,0.0,77,0.00,,,0.01,fowsr,2013-01-29 02:36:00,
2013-01-28 21:40:00,50.5,45.3,29.81,NW,315,0.0,0.0,77,0.00,,,0.01,fowsr,2013-01-29 02:40:00,
2013-01-28 21:41:00,50.7,45.8,-100.00,ESE,112,0.0,0.7,78,0.00,,,0.01,fowsr,2013-01-29 02:41:00,
2013-01-28 21:45:00,50.7,45.8,29.81,East,90,0.0,0.7,78,0.00,,,0.01,fowsr,2013-01-29 02:45:00,
2013-01-28 21:47:00,50.7,45.8,-100.00,North,0,0.0,0.0,78,0.00,,,0.01,fowsr,2013-01-29 02:47:00,
2013-01-28 21:50:00,50.7,45.8,29.81,North,0,0.0,0.7,78,0.00,,,0.01,fowsr,2013-01-29 02:50:00,
2013-01-28 21:52:00,50.7,45.8,-100.00,East,90,0.0,0.0,78,0.00,,,0.01,fowsr,2013-01-29 02:52:00,
2013-01-28 21:55:00,50.7,45.8,29.80,South,180,0.0,1.6,78,0.00,,,0.01,fowsr,2013-01-29 02:55:00,
2013-01-28 21:57:00,50.7,45.8,-100.00,North,0,0.0,0.0,78,0.00,,,0.01,fowsr,2013-01-29 02:57:00,
2013-01-28 22:00:00,50.7,45.8,29.80,NW,315,0.0,0.0,78,0.00,,,0.01,fowsr,2013-01-29 03:00:00,
2013-01-28 22:03:00,50.7,45.8,-100.00,West,270,0.0,0.0,78,0.00,,,0.01,fowsr,2013-01-29 03:03:00,
2013-01-28 22:05:00,50.7,45.8,29.80,West,270,0.0,0.0,78,0.00,,,0.01,fowsr,2013-01-29 03:05:00,
2013-01-28 22:08:00,50.7,45.8,-100.00,SE,135,0.0,0.0,78,0.00,,,0.01,fowsr,2013-01-29 03:08:00,
2013-01-28 22:10:00,50.7,45.8,29.80,SE,135,0.0,0.0,78,0.00,,,0.01,fowsr,2013-01-29 03:10:00,
2013-01-28 22:13:00,50.7,45.8,-100.00,NW,315,0.0,0.7,78,0.00,,,0.01,fowsr,2013-01-29 03:13:00,
2013-01-28 22:15:00,50.7,45.8,29.80,NW,315,0.0,0.7,78,0.00,,,0.01,fowsr,2013-01-29 03:15:00,
2013-01-28 22:19:00,50.7,45.8,-100.00,SW,225,0.0,0.7,78,0.00,,,0.01,fowsr,2013-01-29 03:19:00,
2013-01-28 22:20:00,50.7,45.8,29.80,NW,315,0.0,0.0,78,0.00,,,0.01,fowsr,2013-01-29 03:20:00,
2013-01-28 22:24:00,50.7,45.8,-100.00,NW,315,0.0,0.7,78,0.00,,,0.01,fowsr,2013-01-29 03:24:00,
2013-01-28 22:25:00,50.7,45.8,29.80,SE,135,0.0,0.7,78,0.00,,,0.01,fowsr,2013-01-29 03:25:00,
2013-01-28 22:29:00,50.9,45.9,-100.00,North,0,0.0,0.0,78,0.00,,,0.01,fowsr,2013-01-29 03:29:00,
2013-01-28 22:30:00,50.9,45.9,29.80,East,90,0.0,0.0,78,0.00,,,0.01,fowsr,2013-01-29 03:30:00,
2013-01-28 22:35:00,50.9,45.9,29.80,North,0,0.0,0.0,78,0.00,,,0.01,fowsr,2013-01-29 03:35:00,
2013-01-28 22:40:00,50.9,45.9,29.80,East,90,0.0,0.7,78,0.00,,,0.01,fowsr,2013-01-29 03:40:00,
2013-01-28 22:45:00,51.1,46.1,29.79,East,90,0.0,0.7,78,0.00,,,0.01,fowsr,2013-01-29 03:45:00,
2013-01-28 22:50:00,51.1,46.1,29.79,South,180,0.7,1.6,78,0.00,,,0.01,fowsr,2013-01-29 03:50:00,
2013-01-28 22:51:00,51.1,46.1,-100.00,West,270,0.0,0.7,78,0.00,,,0.01,fowsr,2013-01-29 03:51:00,
2013-01-28 22:55:00,51.1,46.1,29.79,NW,315,0.0,0.7,78,0.00,,,0.01,fowsr,2013-01-29 03:55:00,
2013-01-28 22:56:00,51.1,46.1,-100.00,SE,135,0.0,0.0,78,0.00,,,0.01,fowsr,2013-01-29 03:56:00,
2013-01-28 23:00:00,51.1,46.1,29.79,SE,135,0.0,0.0,78,0.00,,,0.01,fowsr,2013-01-29 04:00:00,
2013-01-28 23:01:00,51.1,46.1,-100.00,SE,135,0.0,0.0,78,0.00,,,0.01,fowsr,2013-01-29 04:01:00,
2013-01-28 23:05:00,51.1,46.1,29.79,SE,135,0.0,0.0,78,0.00,,,0.01,fowsr,2013-01-29 04:05:00,
2013-01-28 23:07:00,51.3,46.3,-100.00,WNW,292,0.0,0.7,78,0.00,,,0.01,fowsr,2013-01-29 04:07:00,
2013-01-28 23:10:00,51.3,46.3,29.79,NW,315,0.0,0.7,78,0.00,,,0.01,fowsr,2013-01-29 04:10:00,
2013-01-28 23:12:00,51.3,46.3,-100.00,West,270,0.0,0.0,78,0.00,,,0.01,fowsr,2013-01-29 04:12:00,
2013-01-28 23:15:00,51.3,46.3,29.79,West,270,0.0,0.0,78,0.00,,,0.01,fowsr,2013-01-29 04:15:00,
2013-01-28 23:17:00,51.3,46.3,-100.00,NW,315,0.7,2.2,78,0.00,,,0.01,fowsr,2013-01-29 04:17:00,
2013-01-28 23:20:00,51.3,46.3,29.79,NW,315,0.0,0.7,78,0.00,,,0.01,fowsr,2013-01-29 04:20:00,
2013-01-28 23:23:00,51.3,46.3,-100.00,NNE,22,0.0,0.7,78,0.00,,,0.01,fowsr,2013-01-29 04:23:00,
2013-01-28 23:25:00,51.3,46.3,29.80,NW,315,0.0,0.7,78,0.00,,,0.01,fowsr,2013-01-29 04:25:00,
2013-01-28 23:28:00,51.1,46.1,-100.00,South,180,0.0,1.6,78,0.00,,,0.01,fowsr,2013-01-29 04:28:00,
2013-01-28 23:30:00,51.3,46.3,29.80,West,270,0.0,0.7,78,0.00,,,0.01,fowsr,2013-01-29 04:30:00,
2013-01-28 23:33:00,51.1,46.4,-100.00,NE,45,0.7,2.2,79,0.00,,,0.01,fowsr,2013-01-29 04:33:00,
2013-01-28 23:35:00,51.1,46.1,29.80,East,90,0.0,0.7,78,0.00,,,0.01,fowsr,2013-01-29 04:35:00,
2013-01-28 23:39:00,51.1,46.4,-100.00,West,270,0.0,0.7,79,0.00,,,0.01,fowsr,2013-01-29 04:39:00,
2013-01-28 23:40:00,51.1,46.4,29.80,NW,315,0.0,0.7,79,0.00,,,0.01,fowsr,2013-01-29 04:40:00,
2013-01-28 23:44:00,51.1,46.6,-100.00,South,180,0.7,2.2,80,0.00,,,0.01,fowsr,2013-01-29 04:44:00,
2013-01-28 23:45:00,51.1,46.4,29.79,North,0,0.0,0.7,79,0.00,,,0.01,fowsr,2013-01-29 04:45:00,
2013-01-28 23:49:00,51.1,46.6,-100.00,SE,135,0.0,0.7,80,0.00,,,0.01,fowsr,2013-01-29 04:49:00,
2013-01-28 23:50:00,51.1,46.6,29.79,West,270,0.0,1.6,80,0.00,,,0.01,fowsr,2013-01-29 04:50:00,
2013-01-28 23:55:00,51.1,46.6,29.80,SE,135,0.0,0.7,80,0.00,,,0.01,fowsr,2013-01-29 04:55:00,